Home   Weather   Lynchburg   Past weeks

Flag for USA Past Weather in Lynchburg, Virginia, USA — Yesterday and Last 2 Weeks

Now
71 °F

Overcast.


Feels Like: 75 °F
Forecast: 62 / 70 °F
Wind: 5 mph from East

Location: Lynchburg Regional Airport

Current Time: Sep 25, 2016 at 4:56:40 PM

Latest Report: Sep 25, 2016 at 3:54 PM


Visibility: 10 mi

Pressure: 30.14 "Hg

Humidity: 66%

Dew Point: 59 °F

Location of LynchburgLocation

Past Weather in Lynchburg — Graph

°F

Lynchburg Temperature Yesterday

Maximum temperature yesterday: 90 °F (at 2:54 PM)
Minimum temperature yesterday: 60 °F (at 4:54 AM)
Average temperature yesterday: 74 °F

High & Low Weather Summary for the Past Weeks

 TemperatureHumidityPressure
High93 °F (Sep 14, 3:54 PM)100% (Sep 14, 7:54 AM)30.28 "Hg (Sep 14, 7:54 AM)
Low60 °F (Sep 24, 4:54 AM)26% (Sep 11, 4:54 PM)29.93 "Hg (Sep 10, 5:54 PM)
Average72 °F77%30.11 "Hg
* Reported Sep 10 3:54 PM — Sep 25 3:01 PM, Lynchburg, Weather by CustomWeather, © 2016

Note: Actual official high and low records may vary slightly from our data, if they occured in-between our weather recording intervals... More about our weather records

Advertising

Lynchburg Weather History for the Previous 24 Hours

Scroll right to see more
 ConditionsComfort  
Time TempWeatherWind HumidityBarometerVisibility
3:01 PM
Sun, Sep 25
71 °FOvercast.6 mph63%30.17 "Hg10 mi
1:54 PM72 °FOvercast.7 mph61%30.16 "Hg10 mi
12:54 PM69 °FOvercast.7 mph68%30.18 "Hg10 mi
11:54 AM70 °FOvercast.3 mph66%30.18 "Hg10 mi
10:54 AM67 °FMore clouds than sun.6 mph76%30.19 "Hg10 mi
9:54 AM66 °FOvercast.8 mph84%30.19 "Hg10 mi
8:54 AM67 °FMore clouds than sun.3 mph87%30.18 "Hg10 mi
7:54 AM66 °FOvercast.5 mph90%30.18 "Hg10 mi
6:54 AM67 °FOvercast.5 mph90%30.16 "Hg10 mi
5:54 AM67 °FOvercast.6 mph90%30.15 "Hg10 mi
4:54 AM67 °FOvercast.3 mph90%30.13 "Hg10 mi
3:54 AM68 °FOvercast.No wind87%30.13 "Hg10 mi
2:54 AM68 °FOvercast.6 mph87%30.13 "Hg10 mi
1:54 AM69 °FMostly cloudy.6 mph84%30.13 "Hg10 mi
12:54 AM70 °FMostly cloudy.7 mph84%30.12 "Hg10 mi
11:54 PM
Sat, Sep 24
71 °FOvercast.7 mph84%30.11 "Hg10 mi
10:54 PM72 °FOvercast.13 mph84%30.11 "Hg10 mi
9:54 PM73 °FPassing clouds.10 mph84%30.09 "Hg10 mi
8:54 PM76 °FPartly cloudy.10 mph77%30.07 "Hg10 mi
7:54 PM78 °FPassing clouds.10 mph71%30.05 "Hg10 mi
6:54 PM80 °FOvercast.8 mph67%30.03 "Hg10 mi
5:54 PM83 °FMore clouds than sun.3 mph59%30.01 "Hg10 mi
4:54 PM87 °FMostly cloudy.3 mph43%30.01 "Hg10 mi
Weather by CustomWeather, © 2016

See weather overviewHow to use our weather pages